This is the latest recevied weather packets stored in our database for station/object W1RCP. If no packets are shown the sender has not sent any weather packets the latest 10 day(s).
| Time | Temp. | Humidity | Pressure | Rain* | Wind** | Luminosity | Snow |
|---|---|---|---|---|---|---|---|
| 1778118249 | 25.56° C | 64% | 1024.4 hPa | 0 mm | - | 0 W/m² | - |
| 1778117945 | 26.11° C | 64% | 1024.6 hPa | 0 mm | - | 0 W/m² | - |
| 1778117642 | 26.11° C | 64% | 1024.6 hPa | 0 mm | - | 0 W/m² | - |
| 1778117340 | 26.11° C | 64% | 1024.4 hPa | 0 mm | - | 0 W/m² | - |
| 1778117036 | 26.11° C | 64% | 1024.5 hPa | 0 mm | - | 0 W/m² | - |
| 1778116733 | 26.11° C | 64% | 1024.7 hPa | 0 mm | - | 0 W/m² | - |
| 1778116430 | 26.67° C | 63% | 1024.5 hPa | 0 mm | - | 0 W/m² | - |
| 1778116130 | 26.67° C | 62% | 1024.5 hPa | 0 mm | - | 0 W/m² | - |
| 1778115825 | 26.67° C | 61% | 1024.3 hPa | 0 mm | - | 0 W/m² | - |
| 1778115523 | 26.67° C | 61% | 1024.3 hPa | 0 mm | - | 0 W/m² | - |
| 1778115219 | 26.67° C | 60% | 1024.5 hPa | 0 mm | - | 0 W/m² | - |
| 1778114917 | 26.67° C | 60% | 1024.3 hPa | 0 mm | - | 0 W/m² | - |
| 1778114614 | 26.67° C | 60% | 1024.3 hPa | 0 mm | - | 0 W/m² | - |
| 1778114310 | 27.22° C | 59% | 1024.6 hPa | 0 mm | - | 0 W/m² | - |
| 1778114006 | 27.22° C | 59% | 1024.5 hPa | 0 mm | - | 0 W/m² | - |
| 1778113701 | 27.22° C | 58% | 1024.7 hPa | 0 mm | - | 1 W/m² | - |
| 1778113397 | 27.22° C | 58% | 1024.7 hPa | 0 mm | - | 1 W/m² | - |
| 1778113095 | 27.78° C | 57% | 1024.6 hPa | 0 mm | - | 2 W/m² | - |
| 1778112792 | 27.78° C | 57% | 1024.5 hPa | 0 mm | - | 4 W/m² | - |
| 1778112488 | 27.78° C | 56% | 1024.4 hPa | 0 mm | - | 7 W/m² | - |
| 1778112184 | 28.33° C | 55% | 1024.6 hPa | 0 mm | - | 10 W/m² | - |
| 1778111881 | 28.33° C | 54% | 1024.8 hPa | 0 mm | - | 14 W/m² | - |
| 1778111577 | 28.89° C | 53% | 1024.9 hPa | 0 mm | - | 21 W/m² | - |
| 1778111274 | 28.89° C | 52% | 1025.1 hPa | 0 mm | - | 32 W/m² | - |
| 1778110971 | 29.44° C | 51% | 1025 hPa | 0 mm | - | 38 W/m² | - |
* Rain latest hour (hover to see other rain measurements)
** Current wind speed in m/s (hover to see current wind gust speed)